Location: Krakow
(50.0830°N, 19.9170°E)
Time: 06:41:00
(UTC+02:00)

Tiros 1 despin weight - Pass Details

Date: 22 March 2026
Orbit: 555 x 592 km, 48.2° (Epoch: 18 April)

Event Time Altitude Azimuth Distance (km) Brightness Sun altitude
Rises 04:20:25 0° 258° (WSW) 2,820 - -13.3°
Reaches altitude 10° 04:22:43 10° 256° (WSW) 1,918 - -12.9°
Exits shadow 04:24:06 20° 253° (WSW) 1,396 ? -12.7°
Maximum altitude 04:27:05 67° 174° (S) 637 ? -12.2°
Drops below altitude 10° 04:31:26 10° 92° (E) 1,904 ? -11.6°
Sets 04:33:42 0° 90° (E) 2,798 ? -11.2°
